Hourly Data Report for October 07, 2015

All times are specified in Local Standard Time (LST). Add 1 hour to adjust for Daylight Saving Time where and when it is observed.

POND INLET A
NUNAVUT

72°41'22.000" N
77°58'08.000" W
61.60 m
2403206
71095
YIO

Download Data

Hourly Data (October 2015)
Hourly Data Report for October 7, 2015
Temp Definition
°C
Dew Point Temp Definition
°C
Rel Hum Definition
%
Wind Dir Definition
10's deg

Wind Spd Definition
km/h
Visibility Definition
km
Stn Press Definition
kPa
Hmdx Definition


Wind Chill Definition


Weather Definition


TIME
00:00 Legend Double Dagger -3.6 -7.4 75 15 15 16.1 99.44   -9 LegendNANA
01:00 Legend Double Dagger -3.7 -7.2 77 16 15 16.1 99.42   -9 LegendNANA
02:00 Legend Double Dagger -2.3 -6.6 73 21 8 16.1 99.41   -5 Snow
03:00 Legend Double Dagger -2.8 -6.3 77 LegendMM 4 12.9 99.40   -4 Snow
04:00 Legend Double Dagger -2.4 -3.4 93 29 9 16.1 99.38   -6 Snow
05:00 Legend Double Dagger -2.4 -3.1 95 27 9 16.1 99.37   -6 Snow
06:00 Legend Double Dagger -2.9 -3.3 97 27 15 8.1 99.38   -8 Snow
07:00 Legend Double Dagger -2.8 -3.9 92 27 17 16.1 99.37   -8 Snow
08:00 Legend Double Dagger -3.4 -4.1 95 26 26 6.4 99.37   -10 Snow
09:00 Legend Double Dagger -3.3 -4.7 90 26 24 16.1 99.39   -10 Snow
10:00 Legend Double Dagger -3.1 -6.0 80 27 28 16.1 99.42   -10 LegendNANA
11:00 Legend Double Dagger -3.5 -6.9 77 28 28 16.1 99.45   -11 LegendNANA
12:00 Legend Double Dagger -3.8 -7.4 76 27 26 16.1 99.47   -11 LegendNANA
13:00 Legend Double Dagger -4.1 -9.6 66 27 24 16.1 99.51   -11 LegendNANA
14:00 Legend Double Dagger -4.3 -9.2 69 26 24 16.1 99.55   -11 LegendNANA
15:00 Legend Double Dagger -4.6 -9.8 67 24 13 16.1 99.59   -10 LegendNANA
16:00 Legend Double Dagger -5.7 -9.8 73 23 13 16.1 99.62   -11 Snow
17:00 Legend Double Dagger -7.6 -9.8 84 15 17 9.7 99.65   -14 Snow
18:00 Legend Double Dagger -10.4 -12.4 86 15 17 16.1 99.66   -18 LegendNANA
19:00 Legend Double Dagger -7.6 -10.5 80 15 15 16.1 99.66   -14 LegendNANA
20:00 Legend Double Dagger -7.4 -10.3 80 15 15 16.1 99.66   -14 LegendNANA
21:00 Legend Double Dagger -7.1 -9.8 81 14 13 16.1 99.64   -13 LegendNANA
22:00 Legend Double Dagger -7.1 -9.6 82 15 9 16.1 99.63   -11 Snow
23:00 Legend Double Dagger -7.7 -9.5 87 16 11 16.1 99.62   -13 Snow

Notes on Data Quality.

Legend

  • E = Estimated
  • M = Missing
  • NA = Not Available
  • ‡ = Partner data that is not subject to review by the National Climate Archives
Date modified: